Location: Izdebno
(52.6670°N, 16.2170°E)
Time: 17:29:12
(UTC+02:00)

SR - Pass Details

Date: 02 March 2024
Orbit: 577 x 862 km, 66.7° (Epoch: 21 April)

Event Time Altitude Azimuth Distance (km) Brightness Sun altitude
Rises 17:42:29 0° 292° (WNW) 3,384 ? -1.7°
Reaches altitude 10° 17:45:48 10° 311° (NW) 2,407 ? -2.2°
Maximum altitude 17:49:35 18° 354° (N) 1,836 ? -2.8°
Drops below altitude 10° 17:53:12 10° 38° (NE) 2,284 ? -3.3°
Enters shadow 17:55:58 - 56° (NE) 3,060 ? -3.7°
Sets 17:56:14 0° 57° (ENE) 3,147 - -3.8°
